#�ϑ�����,���ϕ���,���ϕ���,�ő啗��,�ő啗����������,�ő�u�ԕ���,�ő�u�ԕ�����������
#(�N����),(m/s)   ,(16����),(m/s)   ,(16����)        ,(m/s)       ,(16����)            
2013/10/27 0:01,1.2,3,1.2,12,3.6,15
2013/10/27 0:02,1.2,2,1.3,12,3.3,16
2013/10/27 0:03,1.3,1,1.3,12,4.1,16
2013/10/27 0:04,1.5,1,1.5,1,3.7,16
2013/10/27 0:05,1.4,16,1.5,1,1.5,11
2013/10/27 0:06,1.5,15,1.5,1,2.4,14
2013/10/27 0:07,1.5,15,1.5,1,1.9,2
2013/10/27 0:08,1.6,15,1.6,15,2.7,12
2013/10/27 0:09,1.7,14,1.7,14,2.5,15
2013/10/27 0:10,1.7,14,1.7,14,2.6,14
2013/10/27 0:11,1.6,15,1.7,14,1.6,15
2013/10/27 0:12,1.5,15,1.6,14,2.1,1
2013/10/27 0:13,1.5,15,1.5,14,3.5,4
2013/10/27 0:14,1.5,15,1.5,14,5.6,15
2013/10/27 0:15,1.6,15,1.6,14,4.1,15
2013/10/27 0:16,1.5,15,1.6,14,1.4,16
2013/10/27 0:17,1.5,15,1.5,14,1.5,9
2013/10/27 0:18,1.5,14,1.5,14,1.6,13
2013/10/27 0:19,1.5,14,1.5,14,2.6,10
2013/10/27 0:20,1.4,14,1.5,14,1.5,12
2013/10/27 0:21,1.4,14,1.4,15,2.1,15
2013/10/27 0:22,1.4,14,1.4,15,1.6,2
2013/10/27 0:23,1.4,14,1.4,15,2.4,7
2013/10/27 0:24,1.2,14,1.4,15,2.7,2
2013/10/27 0:25,1.2,13,1.2,15,2.1,12
2013/10/27 0:26,1.3,13,1.3,15,2.1,11
2013/10/27 0:27,1.4,13,1.4,14,2,10
2013/10/27 0:28,1.3,13,1.4,14,1.5,13
2013/10/27 0:29,1.2,12,1.3,14,1,9
2013/10/27 0:30,1.2,11,1.2,14,1.5,8
2013/10/27 0:31,1.1,11,1.2,13,1,9
2013/10/27 0:32,1.1,11,1.1,14,1.9,14
2013/10/27 0:33,1.1,11,1.2,14,3,11
2013/10/27 0:34,1.1,11,1.1,13,1.8,16
2013/10/27 0:35,1.1,12,1.1,13,2,15
2013/10/27 0:36,1.1,12,1.1,13,2.1,14
2013/10/27 0:37,1.1,12,1.1,13,2,13
2013/10/27 0:38,1.2,13,1.2,13,3.5,15
2013/10/27 0:39,1.4,13,1.4,13,3.3,16
2013/10/27 0:40,1.5,14,1.5,14,2.6,1
2013/10/27 0:41,1.6,14,1.6,14,2,9
2013/10/27 0:42,1.7,13,1.7,14,2.7,10
2013/10/27 0:43,1.9,13,1.9,13,4.2,11
2013/10/27 0:44,2.1,12,2.1,13,4.4,9
2013/10/27 0:45,2,12,2,13,1,9
2013/10/27 0:46,1.9,12,2,13,1.8,16
2013/10/27 0:47,1.9,12,1.9,13,2.2,1
2013/10/27 0:48,1.7,12,1.8,13,2.1,14
2013/10/27 0:49,1.7,12,1.7,13,3.3,13
2013/10/27 0:50,1.7,12,1.7,13,2,12
2013/10/27 0:51,1.6,12,1.7,13,1.3,13
2013/10/27 0:52,1.5,12,1.6,13,1.8,12
2013/10/27 0:53,1.4,13,1.5,13,2,13
2013/10/27 0:54,1.2,13,1.3,12,2.9,14
2013/10/27 0:55,1.3,13,1.3,12,2,14
2013/10/27 0:56,1.4,13,1.4,12,2.6,10
2013/10/27 0:57,1.5,13,1.5,12,3.7,9
2013/10/27 0:58,1.7,12,1.7,12,4.2,8
2013/10/27 0:59,1.6,12,1.7,12,3.1,8
2013/10/27 1:00,1.6,11,1.7,12,3,8
2013/10/27 1:01,1.6,11,1.6,12,1,15
2013/10/27 1:02,1.5,11,1.6,12,1.6,16
2013/10/27 1:03,1.5,11,1.5,12,2.9,15
2013/10/27 1:04,1.5,11,1.5,12,3.6,14
2013/10/27 1:05,1.5,10,1.5,12,2,9
2013/10/27 1:06,1.6,10,1.6,12,2.7,15
2013/10/27 1:07,1.6,12,1.6,12,3.7,15
2013/10/27 1:08,1.4,13,1.5,12,1.8,12
2013/10/27 1:09,1.4,13,1.4,11,2.5,9
2013/10/27 1:10,1.4,13,1.4,11,2.1,10
2013/10/27 1:11,1.4,13,1.4,11,1.1,12
2013/10/27 1:12,1.4,13,1.4,10,2.2,15
2013/10/27 1:13,1.5,13,1.5,10,1.8,15
2013/10/27 1:14,1.4,13,1.5,10,2.2,11
2013/10/27 1:15,1.4,13,1.4,10,2.1,12
2013/10/27 1:16,1.4,13,1.4,11,2.2,14
2013/10/27 1:17,1.3,13,1.4,12,3,15
2013/10/27 1:18,1.4,13,1.4,13,3.8,15
2013/10/27 1:19,1.5,13,1.5,13,3.2,12
2013/10/27 1:20,1.6,13,1.6,13,3,12
2013/10/27 1:21,1.8,13,1.8,13,3.1,12
2013/10/27 1:22,1.9,12,1.9,12,3.5,13
2013/10/27 1:23,1.9,12,1.9,12,2.4,11
2013/10/27 1:24,1.8,13,1.9,12,1.8,16
2013/10/27 1:25,1.9,13,1.9,12,3.2,16
2013/10/27 1:26,2,13,2,13,2.7,13
2013/10/27 1:27,2,13,2,13,3.1,12
2013/10/27 1:28,1.9,13,2,13,2.7,13
2013/10/27 1:29,1.9,13,1.9,13,3.9,15
2013/10/27 1:30,1.8,13,1.9,13,3.7,15
2013/10/27 1:31,1.8,14,1.8,13,2.2,12
2013/10/27 1:32,1.7,14,1.8,13,1.9,13
2013/10/27 1:33,1.7,14,1.7,13,2,14
2013/10/27 1:34,1.7,13,1.7,13,1.3,13
2013/10/27 1:35,1.6,13,1.7,13,1.8,9
2013/10/27 1:36,1.5,13,1.6,13,1.6,9
2013/10/27 1:37,1.5,12,1.6,13,2.6,12
2013/10/27 1:38,1.5,12,1.5,13,2.7,15
2013/10/27 1:39,1.5,12,1.6,13,2.5,16
2013/10/27 1:40,1.6,13,1.6,13,3.8,13
2013/10/27 1:41,1.7,13,1.7,14,3.9,12
2013/10/27 1:42,2,13,2,13,7.4,13
2013/10/27 1:43,2.1,13,2.1,13,3.6,15
2013/10/27 1:44,2.2,13,2.2,13,3.3,13
2013/10/27 1:45,2.3,14,2.3,13,4.8,15
2013/10/27 1:46,2.7,14,2.7,14,8.4,11
2013/10/27 1:47,2.7,14,2.7,14,4.3,14
2013/10/27 1:48,2.6,14,2.7,14,2.9,3
2013/10/27 1:49,2.8,14,2.8,14,9.7,12
2013/10/27 1:50,2.9,14,2.9,14,6.1,13
2013/10/27 1:51,2.9,14,3,14,4.8,14
2013/10/27 1:52,2.8,14,2.9,14,4.9,13
2013/10/27 1:53,2.8,14,2.8,14,3.7,15
2013/10/27 1:54,2.7,14,2.8,14,2.4,16
2013/10/27 1:55,2.8,14,2.8,14,6.7,16
2013/10/27 1:56,2.7,15,2.8,14,7.6,15
2013/10/27 1:57,2.8,15,2.8,14,6.4,16
2013/10/27 1:58,2.9,15,2.9,14,3.2,14
2013/10/27 1:59,2.7,15,3,14,3.8,15
2013/10/27 2:00,2.7,15,2.7,14,5.1,13
2013/10/27 2:01,2.7,15,2.7,15,6,14
2013/10/27 2:02,2.7,15,2.7,15,5.1,16
2013/10/27 2:03,2.8,15,2.8,15,5.5,14
2013/10/27 2:04,3,15,3,15,4.7,15
2013/10/27 2:05,3,15,3.1,15,5.1,16
2013/10/27 2:06,2.8,15,3,15,3.2,16
2013/10/27 2:07,2.6,15,2.8,15,2.6,15
2013/10/27 2:08,2.6,15,2.6,15,2.2,15
2013/10/27 2:09,2.6,15,2.6,15,2.9,15
2013/10/27 2:10,2.6,15,2.6,15,5.1,15
2013/10/27 2:11,2.5,15,2.6,15,3.5,15
2013/10/27 2:12,2.4,15,2.4,15,3.1,16
2013/10/27 2:13,2.1,15,2.4,15,3.1,15
2013/10/27 2:14,2.1,16,2.1,15,3.5,16
2013/10/27 2:15,2,16,2,15,3.1,16
2013/10/27 2:16,1.9,15,2,15,2.7,14
2013/10/27 2:17,1.8,15,1.9,15,1.5,13
2013/10/27 2:18,1.9,15,1.9,15,2.9,14
2013/10/27 2:19,1.9,15,1.9,15,2.2,14
2013/10/27 2:20,1.9,15,1.9,15,5.6,16
2013/10/27 2:21,2.2,15,2.2,15,7.8,16
2013/10/27 2:22,2.3,15,2.4,15,5.5,16
2013/10/27 2:23,2.4,15,2.4,15,3.9,1
2013/10/27 2:24,2.5,15,2.5,15,4.3,1
2013/10/27 2:25,2.5,15,2.5,15,4.1,1
2013/10/27 2:26,2.6,16,2.6,16,3.9,1
2013/10/27 2:27,2.5,16,2.6,16,1.1,3
2013/10/27 2:28,2.4,16,2.5,16,1.5,16
2013/10/27 2:29,2.4,16,2.4,16,1.9,12
2013/10/27 2:30,2.1,16,2.3,16,1.1,12
2013/10/27 2:31,1.7,1,2.1,16,1.3,15
2013/10/27 2:32,1.6,16,1.6,16,3,16
2013/10/27 2:33,1.5,1,1.6,16,5,16
2013/10/27 2:34,1.6,16,1.6,16,4.9,14
2013/10/27 2:35,1.8,16,1.8,16,6.2,16
2013/10/27 2:36,1.9,16,1.9,16,4.5,1
2013/10/27 2:37,1.9,16,1.9,16,1.9,1
2013/10/27 2:38,2.1,15,2.1,1,3.2,13
2013/10/27 2:39,2.2,15,2.2,16,6.1,16
2013/10/27 2:40,2.5,15,2.5,15,8.2,14
2013/10/27 2:41,2.9,15,2.9,15,8.5,16
2013/10/27 2:42,3.1,15,3.1,15,5.8,16
2013/10/27 2:43,3,15,3.1,15,3.9,15
2013/10/27 2:44,2.9,15,3,15,4.5,16
2013/10/27 2:45,2.7,15,2.9,15,6.1,14
2013/10/27 2:46,2.7,15,2.7,15,4.2,16
2013/10/27 2:47,3,15,3,15,7.9,16
2013/10/27 2:48,3.1,15,3.1,15,6.2,1
2013/10/27 2:49,3.1,15,3.2,15,6.1,16
2013/10/27 2:50,3.1,16,3.1,15,6.9,16
2013/10/27 2:51,3,16,3.1,15,6.8,14
2013/10/27 2:52,3.1,16,3.1,15,7.6,2
2013/10/27 2:53,3.3,16,3.3,16,8.5,1
2013/10/27 2:54,3.3,16,3.4,16,3.7,16
2013/10/27 2:55,3.3,16,3.3,16,3.2,16
2013/10/27 2:56,3.2,16,3.3,16,3.1,13
2013/10/27 2:57,3,16,3.2,16,2.7,13
2013/10/27 2:58,3,16,3,16,4.5,14
2013/10/27 2:59,3,16,3,16,4.1,1
2013/10/27 3:00,2.8,15,3,16,2.7,15
2013/10/27 3:01,2.8,15,2.9,16,5.2,15
2013/10/27 3:02,2.6,15,2.8,16,3,13
2013/10/27 3:03,2.3,14,2.6,16,2.7,12
2013/10/27 3:04,2.3,14,2.3,16,2,14
2013/10/27 3:05,2.1,13,2.2,16,1.1,12
2013/10/27 3:06,1.9,13,2.1,16,1.4,7
2013/10/27 3:07,1.8,13,1.9,16,0.9,13
2013/10/27 3:08,1.7,13,1.8,16,3.6,13
2013/10/27 3:09,1.6,13,1.7,16,3.5,13
2013/10/27 3:10,1.6,13,1.6,15,3.5,15
2013/10/27 3:11,1.5,12,1.7,15,4.3,14
2013/10/27 3:12,1.6,13,1.6,15,4.5,15
2013/10/27 3:13,1.6,13,1.6,14,4.2,16
2013/10/27 3:14,1.7,14,1.7,14,3.8,15
2013/10/27 3:15,1.9,14,1.9,13,2.7,12
2013/10/27 3:16,2,13,2,13,2.6,12
2013/10/27 3:17,2.1,14,2.1,14,3,16
2013/10/27 3:18,2.2,14,2.2,14,4.7,13
2013/10/27 3:19,2.2,14,2.2,14,4.3,15
2013/10/27 3:20,2.3,14,2.3,14,4.8,15
2013/10/27 3:21,2.4,14,2.4,14,6.1,15
2013/10/27 3:22,2.4,14,2.4,14,5.4,13
2013/10/27 3:23,2.3,14,2.4,14,2.5,16
2013/10/27 3:24,2.4,14,2.4,14,4.3,15
2013/10/27 3:25,2.2,14,2.4,14,2,15
2013/10/27 3:26,2.2,15,2.2,14,4.4,15
2013/10/27 3:27,2.5,15,2.5,15,6.9,15
2013/10/27 3:28,2.6,15,2.6,15,6.1,16
2013/10/27 3:29,2.6,15,2.6,15,5.5,15
2013/10/27 3:30,2.8,15,2.8,15,8.5,16
2013/10/27 3:31,2.9,15,2.9,15,7.1,15
2013/10/27 3:32,2.9,15,2.9,15,4.8,15
2013/10/27 3:33,3,16,3,15,4.2,16
2013/10/27 3:34,3,16,3,15,4.1,15
2013/10/27 3:35,3.2,15,3.2,15,4.4,16
2013/10/27 3:36,3.3,15,3.3,15,3.8,12
2013/10/27 3:37,2.9,15,3.2,15,2.5,12
2013/10/27 3:38,2.7,15,2.9,15,2.9,12
2013/10/27 3:39,2.7,15,2.8,15,4.2,16
2013/10/27 3:40,2.3,14,2.7,15,2.9,2
2013/10/27 3:41,2,14,2.2,15,4.9,15
2013/10/27 3:42,2.1,14,2.1,15,5.6,15
2013/10/27 3:43,2.4,14,2.4,15,9.7,15
2013/10/27 3:44,2.6,14,2.6,15,8.7,14
2013/10/27 3:45,2.7,14,2.7,15,6.7,15
2013/10/27 3:46,2.8,14,2.8,15,5.5,15
2013/10/27 3:47,3.2,15,3.2,15,8.2,15
2013/10/27 3:48,3.4,15,3.4,15,6.8,15
2013/10/27 3:49,3.6,15,3.6,15,7.8,16
2013/10/27 3:50,4,15,4,15,7.2,1
2013/10/27 3:51,4,15,4.1,15,5.6,16
2013/10/27 3:52,4,15,4,15,5,15
2013/10/27 3:53,3.8,15,4,15,6.9,16
2013/10/27 3:54,3.7,15,3.8,15,6.2,14
2013/10/27 3:55,3.7,15,3.7,15,7.1,14
2013/10/27 3:56,3.8,15,3.8,15,5,15
2013/10/27 3:57,3.5,15,3.8,15,3.2,13
2013/10/27 3:58,3.3,15,3.4,15,3,14
2013/10/27 3:59,3,15,3.2,15,2.9,16
2013/10/27 4:00,2.8,15,3,15,2.7,14
2013/10/27 4:01,2.7,14,2.8,15,2.7,12
2013/10/27 4:02,2.6,14,2.7,15,3.2,9
2013/10/27 4:03,2.5,14,2.6,15,3.8,11
2013/10/27 4:04,2.5,13,2.5,15,6,9
2013/10/27 4:05,2.3,13,2.5,15,5.7,9
2013/10/27 4:06,2.3,12,2.3,15,3,12
2013/10/27 4:07,2.3,12,2.3,15,3.1,13
2013/10/27 4:08,2.3,12,2.3,15,3.3,14
2013/10/27 4:09,2.3,12,2.3,15,3.9,14
2013/10/27 4:10,2.2,12,2.3,15,2.5,1
2013/10/27 4:11,2.2,12,2.2,14,2.9,11
2013/10/27 4:12,2.1,12,2.2,14,2.2,11
2013/10/27 4:13,2,13,2.1,14,2.5,12
2013/10/27 4:14,1.8,13,2,13,3.6,11
2013/10/27 4:15,1.7,13,1.8,13,4.5,8
2013/10/27 4:16,1.6,13,1.6,12,3.2,14
2013/10/27 4:17,1.7,13,1.7,12,5.7,14
2013/10/27 4:18,1.8,13,1.8,12,3.8,13
2013/10/27 4:19,1.8,13,1.8,12,4.5,13
2013/10/27 4:20,2.2,13,2.2,12,7,12
2013/10/27 4:21,2.3,13,2.3,13,6.4,13
2013/10/27 4:22,2.6,13,2.6,13,6.1,16
2013/10/27 4:23,2.8,13,2.8,13,4.5,14
2013/10/27 4:24,2.8,13,2.8,13,4.4,13
2013/10/27 4:25,2.8,14,2.9,14,4.2,15
2013/10/27 4:26,3.3,14,3.3,14,11,14
2013/10/27 4:27,3.2,14,3.3,14,4.2,16
2013/10/27 4:28,3.1,14,3.2,14,4.9,13
2013/10/27 4:29,3.1,15,3.1,14,4.8,14
2013/10/27 4:30,3.1,15,3.1,14,9.8,16
2013/10/27 4:31,3.1,15,3.1,14,5.2,15
2013/10/27 4:32,3,15,3.1,14,3.5,15
2013/10/27 4:33,3,15,3.1,14,4.1,13
2013/10/27 4:34,3.1,15,3.1,14,3.9,12
2013/10/27 4:35,3.1,14,3.1,14,2.5,11
2013/10/27 4:36,2.8,14,3.1,14,5.4,13
2013/10/27 4:37,3.1,14,3.1,14,7.8,12
2013/10/27 4:38,3.2,14,3.2,14,3.9,13
2013/10/27 4:39,3.2,13,3.2,14,4.2,12
2013/10/27 4:40,3,13,3.2,14,4.4,12
2013/10/27 4:41,2.9,13,3,14,2.5,12
2013/10/27 4:42,2.8,12,2.8,14,2.7,11
2013/10/27 4:43,2.7,12,2.8,14,2.9,10
2013/10/27 4:44,2.6,12,2.7,14,4.1,13
2013/10/27 4:45,2.7,12,2.7,14,3.6,14
2013/10/27 4:46,2.7,12,2.7,14,3.2,13
2013/10/27 4:47,2.4,12,2.6,14,3.9,15
2013/10/27 4:48,2.3,12,2.4,14,2.2,14
2013/10/27 4:49,2.2,12,2.3,13,3.2,12
2013/10/27 4:50,2.2,12,2.2,13,3,11
2013/10/27 4:51,2.2,12,2.2,13,3.2,9
2013/10/27 4:52,2.3,12,2.3,12,4.1,11
2013/10/27 4:53,2.3,13,2.3,12,3.8,15
2013/10/27 4:54,2.3,13,2.4,12,4.1,16
2013/10/27 4:55,2.2,13,2.3,12,3.3,16
2013/10/27 4:56,2.2,13,2.2,12,3.8,15
2013/10/27 4:57,2.1,13,2.2,12,2.1,14
2013/10/27 4:58,2.2,13,2.2,13,3.5,13
2013/10/27 4:59,2.1,13,2.2,13,2.6,10
2013/10/27 5:00,2.2,13,2.2,13,3.5,10
2013/10/27 5:01,2.2,13,2.2,13,3.1,12
2013/10/27 5:02,2.1,13,2.2,13,2.2,14
2013/10/27 5:03,2,13,2.1,13,3,15
2013/10/27 5:04,1.9,13,2,13,2.4,14
2013/10/27 5:05,1.9,13,1.9,13,2.7,12
2013/10/27 5:06,1.8,13,1.9,13,2.4,13
2013/10/27 5:07,1.8,13,1.8,13,2.1,13
2013/10/27 5:08,1.7,13,1.8,13,2.4,11
2013/10/27 5:09,1.8,13,1.8,13,2.5,12
2013/10/27 5:10,1.7,13,1.8,13,2.5,13
2013/10/27 5:11,1.6,13,1.7,13,2.2,12
2013/10/27 5:12,1.7,13,1.7,13,2.5,14
2013/10/27 5:13,1.7,13,1.7,13,3.7,15
2013/10/27 5:14,1.8,13,1.8,13,3.7,15
2013/10/27 5:15,1.9,13,1.9,13,3.1,13
2013/10/27 5:16,2.1,13,2.1,13,3.7,12
2013/10/27 5:17,2.2,13,2.2,13,3.2,13
2013/10/27 5:18,2.3,13,2.3,13,3.5,11
2013/10/27 5:19,2.5,12,2.5,13,5.4,10
2013/10/27 5:20,2.7,12,2.7,12,4.8,10
2013/10/27 5:21,2.8,12,2.8,12,4.1,9
2013/10/27 5:22,2.8,12,2.8,12,3.5,10
2013/10/27 5:23,2.9,12,2.9,12,3.6,14
2013/10/27 5:24,2.8,12,2.9,12,3.6,15
2013/10/27 5:25,2.7,12,2.8,12,3.7,14
2013/10/27 5:26,2.7,12,2.7,12,3.2,12
2013/10/27 5:27,2.7,12,2.7,12,3.2,12
2013/10/27 5:28,2.6,12,2.7,12,2.7,12
2013/10/27 5:29,2.4,12,2.6,12,3,13
2013/10/27 5:30,2.3,13,2.4,12,3.3,14
2013/10/27 5:31,2.2,13,2.3,12,2.7,13
2013/10/27 5:32,2.3,13,2.3,12,3.6,12
2013/10/27 5:33,2.3,13,2.3,12,3.5,12
2013/10/27 5:34,2.2,13,2.3,12,1.9,12
2013/10/27 5:35,2.2,12,2.2,12,2.5,11
2013/10/27 5:36,2.2,12,2.3,12,3,10
2013/10/27 5:37,2.1,12,2.2,12,3.1,9
2013/10/27 5:38,1.9,12,2,12,2.1,9
2013/10/27 5:39,1.9,12,1.9,12,2.1,12
2013/10/27 5:40,1.8,12,1.9,13,2.5,13
2013/10/27 5:41,1.7,12,1.8,13,3.1,15
2013/10/27 5:42,1.7,12,1.7,13,3.2,15
2013/10/27 5:43,1.5,12,1.7,13,1.6,15
2013/10/27 5:44,1.5,12,1.5,12,3.7,12
2013/10/27 5:45,1.5,12,1.5,12,3.3,11
2013/10/27 5:46,1.4,13,1.5,12,1.8,12
2013/10/27 5:47,1.4,13,1.4,12,1.3,12
2013/10/27 5:48,1.4,13,1.4,12,1.3,13
2013/10/27 5:49,1.3,12,1.4,12,1.3,10
2013/10/27 5:50,1.4,12,1.4,12,3.2,11
2013/10/27 5:51,1.4,12,1.4,12,2.4,10
2013/10/27 5:52,1.2,12,1.4,12,1.8,11
2013/10/27 5:53,1.2,12,1.2,12,0.6,12
2013/10/27 5:54,1.1,12,1.2,12,0.5,12
2013/10/27 5:55,1,12,1.1,12,1.3,6
2013/10/27 5:56,1,11,1,13,1.9,5
2013/10/27 5:57,0.9,11,1,13,1,7
2013/10/27 5:58,0.9,10,0.9,13,1.6,7
2013/10/27 5:59,0.9,9,0.9,12,1.4,7
2013/10/27 6:00,0.7,8,0.9,12,0.4,4
2013/10/27 6:01,0.6,7,0.7,12,1.3,16
2013/10/27 6:02,0.6,5,0.6,12,1.4,16
2013/10/27 6:03,0.6,4,0.6,12,0.8,1
2013/10/27 6:04,0.6,5,0.6,12,0.6,6
2013/10/27 6:05,0.6,5,0.6,12,1.5,5
2013/10/27 6:06,0.7,5,0.7,11,2.2,6
2013/10/27 6:07,0.8,4,0.8,10,2.1,6
2013/10/27 6:08,0.9,4,0.9,10,2.2,6
2013/10/27 6:09,0.8,4,0.8,9,1.1,7
2013/10/27 6:10,0.9,3,0.9,4,1.3,15
2013/10/27 6:11,0.9,3,0.9,4,1.3,16
2013/10/27 6:12,0.8,4,0.9,4,0.9,11
2013/10/27 6:13,0.9,6,0.9,4,1.5,9
2013/10/27 6:14,0.9,7,0.9,4,1,11
2013/10/27 6:15,0.9,10,0.9,4,1.4,13
2013/10/27 6:16,0.9,12,0.9,4,1.3,13
2013/10/27 6:17,0.8,13,0.9,4,1.1,13
2013/10/27 6:18,0.8,13,0.8,4,1.4,14
2013/10/27 6:19,0.8,13,0.8,4,1.1,13
2013/10/27 6:20,0.8,12,0.8,3,1,12
2013/10/27 6:21,0.8,12,0.8,3,1,8
2013/10/27 6:22,0.9,12,0.9,5,0.9,4
2013/10/27 6:23,0.9,12,0.9,6,2.2,4
2013/10/27 6:24,0.9,13,0.9,7,1.9,3
2013/10/27 6:25,0.9,14,0.9,10,0.6,16
2013/10/27 6:26,0.9,14,0.9,12,1.6,14
2013/10/27 6:27,0.9,12,0.9,12,1.8,9
2013/10/27 6:28,0.8,8,0.9,12,1.1,10
2013/10/27 6:29,0.9,7,0.9,12,2.6,9
2013/10/27 6:30,1,7,1,7,2.2,10
2013/10/27 6:31,1.1,8,1.1,7,2.4,9
2013/10/27 6:32,1.2,9,1.2,9,2.2,9
2013/10/27 6:33,1.1,9,1.2,9,2,9
2013/10/27 6:34,1.1,10,1.1,9,1.5,11
2013/10/27 6:35,1.2,10,1.2,9,2,15
2013/10/27 6:36,1.2,10,1.3,10,1.6,12
2013/10/27 6:37,1.2,10,1.3,10,1.6,9
2013/10/27 6:38,1.3,10,1.3,10,2.5,8
2013/10/27 6:39,1.2,10,1.3,10,1.1,10
2013/10/27 6:40,1.1,10,1.2,10,1.3,8
2013/10/27 6:41,0.9,10,1.1,10,1.3,11
2013/10/27 6:42,0.9,10,0.9,10,1.9,9
2013/10/27 6:43,0.9,10,0.9,10,2.4,8
2013/10/27 6:44,1,9,1,10,2.5,8
2013/10/27 6:45,1,9,1,10,2.2,10
2013/10/27 6:46,1,9,1,10,1.6,10
2013/10/27 6:47,0.9,9,0.9,10,1.3,16
2013/10/27 6:48,0.9,9,0.9,10,2,16
2013/10/27 6:49,0.9,10,0.9,10,0.6,12
2013/10/27 6:50,0.9,10,0.9,10,0.6,12
2013/10/27 6:51,0.9,10,0.9,10,0.9,11
2013/10/27 6:52,0.9,10,0.9,10,1.6,8
2013/10/27 6:53,0.8,10,0.9,10,0.8,5
2013/10/27 6:54,0.6,11,0.7,9,1,16
2013/10/27 6:55,0.6,13,0.6,9,1.6,1
2013/10/27 6:56,0.5,14,0.6,9,1,16
2013/10/27 6:57,0.5,13,0.5,9,1.1,12
2013/10/27 6:58,0.5,13,0.5,9,0.8,10
2013/10/27 6:59,0.5,14,0.5,10,0.4,2
2013/10/27 7:00,0.4,15,0.5,10,0.1,3
2013/10/27 7:01,0.4,16,0.4,10,0.1,15
2013/10/27 7:02,0.3,15,0.4,10,1.5,9
2013/10/27 7:03,0.4,16,0.4,10,0.9,9
2013/10/27 7:04,0.4,16,0.4,12,2.2,16
2013/10/27 7:05,0.5,16,0.5,13,2,16
2013/10/27 7:06,0.5,15,0.5,14,1,15
2013/10/27 7:07,0.5,15,0.5,13,0.9,15
2013/10/27 7:08,0.5,16,0.5,13,0.6,14
2013/10/27 7:09,0.6,16,0.6,16,1,2
2013/10/27 7:10,0.6,16,0.6,16,1,2
2013/10/27 7:11,0.7,1,0.7,1,0.8,2
2013/10/27 7:12,0.6,2,0.7,1,0.8,3
2013/10/27 7:13,0.6,2,0.6,1,0.6,7
2013/10/27 7:14,0.6,2,0.6,1,0.5,5
2013/10/27 7:15,0.5,3,0.5,1,0.8,6
2013/10/27 7:16,0.5,4,0.5,1,1,5
2013/10/27 7:17,0.5,4,0.5,1,1.3,3
2013/10/27 7:18,0.5,4,0.5,1,0.6,3
2013/10/27 7:19,0.5,4,0.5,1,0.1,1
2013/10/27 7:20,0.4,4,0.5,1,0.6,1
2013/10/27 7:21,0.4,4,0.4,1,0.8,2
2013/10/27 7:22,0.4,3,0.4,2,0.8,2
2013/10/27 7:23,0.4,3,0.4,2,0.6,16
2013/10/27 7:24,0.4,2,0.4,2,0.9,16
2013/10/27 7:25,0.5,2,0.5,3,1.1,5
2013/10/27 7:26,0.5,2,0.5,4,1.3,5
2013/10/27 7:27,0.4,2,0.5,4,0.8,4
2013/10/27 7:28,0.4,2,0.4,4,0.6,16
2013/10/27 7:29,0.4,2,0.4,4,0.5,1
2013/10/27 7:30,0.5,2,0.5,2,0.9,4
2013/10/27 7:31,0.5,2,0.5,2,1.3,3
2013/10/27 7:32,0.6,2,0.6,2,1.6,2
2013/10/27 7:33,0.6,2,0.6,2,0.9,2
2013/10/27 7:34,0.6,3,0.6,2,0.9,4
2013/10/27 7:35,0.7,3,0.7,3,1.4,5
2013/10/27 7:36,0.7,3,0.7,3,1.3,4
2013/10/27 7:37,0.7,2,0.7,3,1,15
2013/10/27 7:38,0.7,2,0.7,3,1.4,1
2013/10/27 7:39,0.8,2,0.8,2,2.2,16
2013/10/27 7:40,0.8,2,0.8,2,1,15
2013/10/27 7:41,0.7,2,0.8,2,0.4,3
2013/10/27 7:42,0.7,2,0.7,2,1,5
2013/10/27 7:43,0.7,3,0.7,2,1,4
2013/10/27 7:44,0.7,2,0.7,2,0.8,4
2013/10/27 7:45,0.7,2,0.7,2,1.3,2
2013/10/27 7:46,0.7,2,0.7,2,1.5,16
2013/10/27 7:47,0.7,2,0.7,2,1.5,4
2013/10/27 7:48,0.7,2,0.8,2,1.5,4
2013/10/27 7:49,0.6,3,0.7,2,0.8,1
2013/10/27 7:50,0.6,3,0.6,2,0.1,2
2013/10/27 7:51,0.6,3,0.6,2,0.1,2
2013/10/27 7:52,0.5,3,0.6,2,0.1,3
2013/10/27 7:53,0.4,3,0.5,2,0.5,4
2013/10/27 7:54,0.5,3,0.5,2,0.8,4
2013/10/27 7:55,0.4,3,0.4,2,0.4,4
2013/10/27 7:56,0.3,3,0.4,2,0.6,4
2013/10/27 7:57,0.3,4,0.3,2,0.8,4
2013/10/27 7:58,0.3,4,0.3,2,1.5,7
2013/10/27 7:59,0.4,4,0.4,3,2,7
2013/10/27 8:00,0.6,4,0.6,3,2,6
2013/10/27 8:01,0.7,5,0.7,5,1.9,6
2013/10/27 8:02,0.8,5,0.8,5,1.5,6
2013/10/27 8:03,0.8,5,0.8,5,0.6,5
2013/10/27 8:04,0.8,5,0.8,5,1,14
2013/10/27 8:05,0.8,5,0.8,5,1.1,14
2013/10/27 8:06,0.8,6,0.8,5,0.3,10
2013/10/27 8:07,0.8,7,0.8,5,1.4,8
2013/10/27 8:08,0.8,7,0.8,5,0.9,7
2013/10/27 8:09,0.6,8,0.7,5,0.3,9
2013/10/27 8:10,0.5,10,0.6,5,0,10
2013/10/27 8:11,0.3,10,0.4,5,0,12
2013/10/27 8:12,0.3,10,0.3,5,0.6,6
2013/10/27 8:13,0.4,10,0.4,5,1.3,7
2013/10/27 8:14,0.4,9,0.4,5,2.2,8
2013/10/27 8:15,0.4,8,0.4,5,1.5,9
2013/10/27 8:16,0.5,8,0.5,6,0.8,7
2013/10/27 8:17,0.4,8,0.5,7,0.1,3
2013/10/27 8:18,0.4,8,0.4,7,0.1,4
2013/10/27 8:19,0.4,8,0.4,8,0.6,8
2013/10/27 8:20,0.4,7,0.4,8,0.8,6
2013/10/27 8:21,0.5,7,0.5,8,1,6
2013/10/27 8:22,0.6,7,0.6,7,1.3,7
2013/10/27 8:23,0.5,7,0.6,7,1.8,9
2013/10/27 8:24,0.5,7,0.5,7,1.4,7
2013/10/27 8:25,0.4,7,0.5,7,1,6
2013/10/27 8:26,0.4,7,0.4,7,1.1,2
2013/10/27 8:27,0.5,6,0.5,7,2.2,1
2013/10/27 8:28,0.5,6,0.5,7,0.6,1
2013/10/27 8:29,0.5,6,0.6,7,1,6
2013/10/27 8:30,0.5,6,0.5,7,0.1,13
2013/10/27 8:31,0.4,7,0.5,7,0.5,12
2013/10/27 8:32,0.4,8,0.4,7,1.6,8
2013/10/27 8:33,0.4,7,0.5,6,2.2,8
2013/10/27 8:34,0.4,8,0.4,6,0.8,11
2013/10/27 8:35,0.4,7,0.4,6,0.5,6
2013/10/27 8:36,0.4,8,0.4,6,1,3
2013/10/27 8:37,0.4,6,0.4,6,0.9,4
2013/10/27 8:38,0.4,6,0.4,6,1.1,5
2013/10/27 8:39,0.4,5,0.4,6,0.9,4
2013/10/27 8:40,0.5,6,0.5,6,0.4,9
2013/10/27 8:41,0.5,6,0.5,8,2.2,9
2013/10/27 8:42,0.6,6,0.6,6,1.9,10
2013/10/27 8:43,0.6,6,0.6,6,1.8,9
2013/10/27 8:44,0.6,6,0.6,6,1.9,9
2013/10/27 8:45,0.7,7,0.7,7,1.1,6
2013/10/27 8:46,0.7,7,0.7,7,1.3,8
2013/10/27 8:47,0.7,8,0.7,7,1.5,7
2013/10/27 8:48,0.6,9,0.7,7,0.1,2
2013/10/27 8:49,0.6,9,0.6,7,0.8,10
2013/10/27 8:50,0.6,9,0.6,7,0.3,6
2013/10/27 8:51,0.6,9,0.6,7,1.1,9
2013/10/27 8:52,0.5,9,0.6,7,1.1,7
2013/10/27 8:53,0.5,8,0.5,7,1.8,7
2013/10/27 8:54,0.5,8,0.5,7,1,6
2013/10/27 8:55,0.5,8,0.5,7,1.1,7
2013/10/27 8:56,0.5,8,0.5,7,1.5,6
2013/10/27 8:57,0.5,7,0.5,8,1.1,7
2013/10/27 8:58,0.6,7,0.6,9,1.1,5
2013/10/27 8:59,0.5,7,0.6,9,0.1,5
2013/10/27 9:00,0.5,7,0.5,9,0.1,3
2013/10/27 9:01,0.5,6,0.5,9,1.1,15
2013/10/27 9:02,0.6,6,0.6,7,2.1,16
2013/10/27 9:03,0.6,5,0.6,7,2,16
2013/10/27 9:04,0.7,3,0.7,5,2,1
2013/10/27 9:05,0.7,2,0.7,5,1.3,1
2013/10/27 9:06,0.6,1,0.7,5,0.9,1
2013/10/27 9:07,0.6,1,0.6,5,0.9,2
2013/10/27 9:08,0.6,1,0.6,5,1,3
2013/10/27 9:09,0.6,1,0.6,5,0.5,4
2013/10/27 9:10,0.7,2,0.7,5,1,6
2013/10/27 9:11,0.7,2,0.7,5,1.3,5
2013/10/27 9:12,0.7,3,0.7,5,1.4,3
2013/10/27 9:13,0.7,3,0.7,5,1.5,3
2013/10/27 9:14,0.6,3,0.7,3,1,16
2013/10/27 9:15,0.6,3,0.6,2,0.3,5
2013/10/27 9:16,0.6,3,0.6,2,1,14
2013/10/27 9:17,0.6,3,0.6,2,0.6,10
2013/10/27 9:18,0.6,4,0.6,2,1,8
2013/10/27 9:19,0.6,4,0.6,2,0.9,2
2013/10/27 9:20,0.7,2,0.7,2,1.5,1
2013/10/27 9:21,0.6,1,0.7,2,1.9,2
2013/10/27 9:22,0.6,1,0.6,3,1.8,2
2013/10/27 9:23,0.6,1,0.6,3,2.1,4
2013/10/27 9:24,0.7,3,0.7,3,1.9,8
2013/10/27 9:25,0.8,4,0.8,4,2.1,6
2013/10/27 9:26,0.7,4,0.8,4,0.8,6
2013/10/27 9:27,0.7,3,0.7,4,1.1,12
2013/10/27 9:28,0.7,3,0.7,4,0.9,14
2013/10/27 9:29,0.7,3,0.7,4,0.6,2
2013/10/27 9:30,0.7,4,0.7,4,1.9,8
2013/10/27 9:31,0.7,5,0.7,4,2,7
2013/10/27 9:32,0.7,6,0.7,4,1.9,10
2013/10/27 9:33,0.8,7,0.8,4,3,8
2013/10/27 9:34,0.8,8,0.8,4,3,8
2013/10/27 9:35,0.8,8,0.8,4,2.2,3
2013/10/27 9:36,0.9,8,0.9,8,2.2,4
2013/10/27 9:37,0.9,7,1,8,1,7
2013/10/27 9:38,1,8,1,8,1.8,8
2013/10/27 9:39,1.1,7,1.1,8,2,5
2013/10/27 9:40,1.1,7,1.1,8,2,4
2013/10/27 9:41,1.1,7,1.1,8,1.9,16
2013/10/27 9:42,1.2,6,1.2,6,2.2,6
2013/10/27 9:43,1.2,6,1.2,6,3,9
2013/10/27 9:44,1.2,6,1.2,6,2.1,9
2013/10/27 9:45,1.1,6,1.2,6,1.4,8
2013/10/27 9:46,1.1,7,1.1,6,2.2,9
2013/10/27 9:47,1.1,7,1.1,6,3,8
2013/10/27 9:48,1.1,7,1.1,6,2.9,10
2013/10/27 9:49,1.1,8,1.1,6,1.9,11
2013/10/27 9:50,1.1,8,1.1,6,2,10
2013/10/27 9:51,1,8,1.1,6,0.9,9
2013/10/27 9:52,0.9,9,1,6,2.1,9
2013/10/27 9:53,0.8,9,0.9,6,2,8
2013/10/27 9:54,0.8,9,0.8,6,2.5,8
2013/10/27 9:55,1,9,1,7,3.6,8
2013/10/27 9:56,1.1,9,1.1,7,2.7,9
2013/10/27 9:57,1.1,9,1.1,7,1.9,12
2013/10/27 9:58,1.1,9,1.1,7,2.4,8
2013/10/27 9:59,1.1,9,1.1,8,2.2,9
2013/10/27 10:00,1.2,9,1.2,9,2.9,9
2013/10/27 10:01,1.3,9,1.3,9,3,8
2013/10/27 10:02,1.5,9,1.5,9,4.2,8
2013/10/27 10:03,1.6,9,1.6,9,3.3,9
2013/10/27 10:04,1.7,9,1.7,9,5.1,9
2013/10/27 10:05,1.8,9,1.8,9,5.1,8
2013/10/27 10:06,1.8,9,1.8,9,4.2,8
2013/10/27 10:07,1.9,9,1.9,9,3.2,9
2013/10/27 10:08,2.1,9,2.1,9,3.9,9
2013/10/27 10:09,2.2,9,2.2,9,3.3,9
2013/10/27 10:10,2.2,9,2.2,9,3.2,9
2013/10/27 10:11,2.2,9,2.2,9,2.9,9
2013/10/27 10:12,2,9,2.1,9,2.4,9
2013/10/27 10:13,2,9,2,9,3.6,8
2013/10/27 10:14,2,9,2,9,3.9,8
2013/10/27 10:15,1.8,9,2,9,2.9,10
2013/10/27 10:16,1.7,9,1.8,9,2.4,8
2013/10/27 10:17,1.6,9,1.7,9,1.5,11
2013/10/27 10:18,1.3,9,1.6,9,1.1,10
2013/10/27 10:19,1.2,9,1.3,9,1.5,9
2013/10/27 10:20,1.1,9,1.2,9,1.8,9
2013/10/27 10:21,1.1,9,1.1,9,1.9,8
2013/10/27 10:22,1.3,9,1.3,9,2.9,12
2013/10/27 10:23,1.3,10,1.3,9,2.7,12
2013/10/27 10:24,1.3,10,1.3,9,2.7,12
2013/10/27 10:25,1.3,10,1.3,9,3.2,9
2013/10/27 10:26,1.3,11,1.4,9,2.1,10
2013/10/27 10:27,1.3,10,1.3,9,1,10
2013/10/27 10:28,1.3,10,1.3,10,1.1,11
2013/10/27 10:29,1.4,10,1.4,10,2,9
2013/10/27 10:30,1.3,11,1.4,10,1.4,11
2013/10/27 10:31,1.3,11,1.4,10,2,12
2013/10/27 10:32,1.2,11,1.3,10,1.3,14
2013/10/27 10:33,1.2,11,1.2,10,2.1,13
2013/10/27 10:34,1.1,11,1.2,10,2.6,12
2013/10/27 10:35,1.1,11,1.1,10,3,12
2013/10/27 10:36,1.1,11,1.1,10,2.1,9
2013/10/27 10:37,1.4,11,1.4,10,4.7,10
2013/10/27 10:38,1.6,11,1.6,11,3.7,9
2013/10/27 10:39,1.8,11,1.8,11,4.7,9
2013/10/27 10:40,2,10,2,10,6.8,10
2013/10/27 10:41,2.1,10,2.1,10,5.6,10
2013/10/27 10:42,2.3,10,2.3,10,5.1,13
2013/10/27 10:43,2.4,10,2.4,10,4.4,15
2013/10/27 10:44,2.5,10,2.5,10,5.4,12
2013/10/27 10:45,2.7,11,2.7,11,7.1,12
2013/10/27 10:46,2.9,11,2.9,11,6.5,12
2013/10/27 10:47,3.1,12,3.1,12,8.6,15
2013/10/27 10:48,3.2,13,3.2,12,6.3,15
2013/10/27 10:49,3.1,13,3.2,12,4.4,13
2013/10/27 10:50,3.1,13,3.2,12,4.5,14
2013/10/27 10:51,3.2,14,3.2,12,5.7,14
2013/10/27 10:52,3.1,14,3.2,12,3.7,14